This is the latest recevied weather packets stored in our database for station/object KC5DAQ-25. If no packets are shown the sender has not sent any weather packets the latest 10 day(s).
| Time | Temp. | Humidity | Pressure | Rain* | Wind** | Luminosity | Snow |
|---|---|---|---|---|---|---|---|
| 1778092668 | 27.78° C | 82% | 1001.2 hPa | 0 mm | - | 357 W/m² | - |
| 1778092617 | 27.78° C | 82% | 1001.2 hPa | 0 mm | - | 357 W/m² | - |
| 1778092548 | 27.78° C | 82% | 1001.3 hPa | 0 mm | - | 668 W/m² | - |
| 1778092488 | 27.78° C | 82% | 1001.2 hPa | 0 mm | - | 668 W/m² | - |
| 1778092427 | 27.78° C | 82% | 1001.2 hPa | 0 mm | - | 668 W/m² | - |
| 1778092366 | 27.78° C | 82% | 1001.2 hPa | 0 mm | - | 668 W/m² | - |
| 1778092316 | 27.78° C | 82% | 1001.2 hPa | 0 mm | - | 408 W/m² | - |
| 1778092246 | 27.22° C | 83% | 1001.2 hPa | 0 mm | - | 408 W/m² | - |
| 1778092186 | 27.22° C | 83% | 1001.2 hPa | 0 mm | - | 408 W/m² | - |
| 1778092126 | 27.22° C | 83% | 1001.2 hPa | 0 mm | - | 408 W/m² | - |
| 1778092066 | 27.22° C | 83% | 1001.3 hPa | 0 mm | - | 408 W/m² | - |
| 1778092007 | 27.22° C | 83% | 1001.2 hPa | 0 mm | - | 408 W/m² | - |
| 1778091948 | 27.22° C | 83% | 1001.4 hPa | 0 mm | - | 408 W/m² | - |
| 1778091887 | 27.22° C | 83% | 1001.3 hPa | 0 mm | - | 579 W/m² | - |
| 1778091828 | 27.22° C | 83% | 1001.3 hPa | 0 mm | - | 579 W/m² | - |
| 1778091766 | 27.22° C | 83% | 1001.3 hPa | 0 mm | - | 579 W/m² | - |
| 1778091709 | 27.22° C | 83% | 1001.4 hPa | 0 mm | - | 579 W/m² | - |
| 1778091645 | 27.22° C | 83% | 1001.4 hPa | 0 mm | - | 579 W/m² | - |
| 1778091585 | 26.67° C | 84% | 1001.4 hPa | 0 mm | - | 463 W/m² | - |
| 1778091527 | 26.67° C | 84% | 1001.4 hPa | 0 mm | - | 463 W/m² | - |
| 1778091467 | 26.67° C | 84% | 1001.4 hPa | 0 mm | - | 343 W/m² | - |
| 1778091409 | 26.67° C | 84% | 1001.6 hPa | 0 mm | - | 343 W/m² | - |
| 1778091340 | 26.67° C | 84% | 1001.5 hPa | 0 mm | - | 190 W/m² | - |
| 1778091275 | 26.67° C | 84% | 1001.5 hPa | 0 mm | - | 190 W/m² | - |
| 1778091211 | 26.67° C | 83% | 1001.6 hPa | 0 mm | - | 190 W/m² | - |
* Rain latest hour (hover to see other rain measurements)
** Current wind speed in m/s (hover to see current wind gust speed)